Location: Jalan Sepang
(2.8072°N, 101.8021°E)
Time: 05:58:20
(UTC+00:00)

Cosmos 1867 - Pass Details

Date: 15 May 2026
Orbit: 775 x 798 km, 65.0° (Epoch: 7 June)

Event Time Altitude Azimuth Distance (km) Brightness Sun altitude
Rises 21:16:15 0° 340° (NNW) 3,281 6.8 -25.5°
Reaches altitude 10° 21:18:41 10° 340° (NNW) 2,351 6.0 -25.0°
Maximum altitude 21:24:06 84° 69° (ENE) 797 3.5 -23.7°
Drops below altitude 10° 21:29:30 10° 157° (SSE) 2,344 6.0 -22.5°
Sets 21:31:54 0° 157° (SSE) 3,270 6.8 -21.9°
